STARLINK-32127 (60146 NORAD) Tracking and Keplerian Element Data

This shows tracking and keplerian element data for the satellite.

Feedback or suggestion? Click here.




ElementValue
Catalog60146
NameSTARLINK-32127
Epoch Orbit1777
Epoch Day286.7451874
Epoch Year2024
RAAN187.3648
Inclination53.1583
Eccentricity0.0001562
Argument of Perigee85.0289
Mean Anonmoly275.0894
Mean Motion15.39702607
Decay Rate0.00071442
L11 60146U 24120M 24286.74518740 .00071442 00000+0 17745-2 0 9997
L22 60146 53.1583 187.3648 0001562 85.0289 275.0894 15.39702607 17774



Live tracking and technical data element details for STARLINK-32127 (NORAD 60146). STARLINK-32127 can be tracked NOW for your location showing map with azimuth and elevation plus other details from your city location.







IsCatalogInMostPopularTable: catalog: 60146, numindb: 9
Update: records affected: 1



GetName: 60146 STARLINK-32127

Hit Count: updated at: Thu, 23 Jan 2025 13:49:55 GMT